| time (UTC) | temp F | wind direction | speed MPH | gust MPH | rain 1hr in | rain 24hr in | rain mn in | humidity % | barometer mb |
| 20260906143109 | 68 | 149 | 4.0 | 7.0 | 0.00 | 0.00 | 0.00 | 93 | 1019.1 |
| 20260906142534 | 68 | 174 | 4.0 | 8.0 | 0.00 | 0.00 | 0.00 | 94 | 1019.1 |
| 20260906142030 | 67 | 144 | 4.0 | 8.0 | 0.00 | 0.00 | 0.00 | 94 | 1019.3 |
| 20260906141601 | 67 | 151 | 4.0 | 9.0 | 0.00 | 0.00 | 0.00 | 94 | 1019.3 |
| 20260906141031 | 67 | 100 | 5.0 | 9.0 | 0.00 | 0.00 | 0.00 | 94 | 1019.3 |
| 20260906140531 | 67 | 198 | 4.0 | 8.0 | 0.00 | 0.00 | 0.00 | 94 | 1019.2 |
| 20260906135531 | 66 | 144 | 3.0 | 9.0 | 0.00 | 0.00 | 0.00 | 94 | 1019.1 |
| 20260906135031 | 66 | 167 | 5.0 | 9.0 | 0.00 | 0.00 | 0.00 | 94 | 1019.1 |
| 20260906134604 | 66 | 167 | 4.0 | 7.0 | 0.00 | 0.00 | 0.00 | 94 | 1019.1 |
| 20260906134031 | 65 | 162 | 3.0 | 9.0 | 0.00 | 0.00 | 0.00 | 94 | 1019.1 |
| 20260906133530 | 65 | 132 | 5.0 | 9.0 | 0.00 | 0.00 | 0.00 | 94 | 1019.1 |
| 20260906133108 | 65 | 194 | 4.0 | 7.0 | 0.00 | 0.00 | 0.00 | 94 | 1019.2 |
| 20260906132531 | 65 | 141 | 3.0 | 7.0 | 0.00 | 0.00 | 0.00 | 94 | 1019.1 |
| 20260906132031 | 65 | 153 | 4.0 | 7.0 | 0.00 | 0.00 | 0.00 | 94 | 1019.2 |
| 20260906131600 | 65 | 163 | 3.0 | 5.0 | 0.00 | 0.00 | 0.00 | 94 | 1019.2 |
| 20260906131030 | 65 | 136 | 3.0 | 5.0 | 0.00 | 0.00 | 0.00 | 94 | 1019.2 |
| 20260906130531 | 65 | 153 | 3.0 | 4.0 | 0.00 | 0.00 | 0.00 | 94 | 1019.2 |
| 20260906130056 | 65 | 221 | 1.0 | 4.0 | 0.00 | 0.00 | 0.00 | 94 | 1019.2 |
| 20260906125531 | 65 | 172 | 2.0 | 4.0 | 0.00 | 0.00 | 0.00 | 94 | 1019.2 |
| 20260906125031 | 64 | 102 | 1.0 | 6.0 | 0.00 | 0.00 | 0.00 | 94 | 1019.0 |
| 20260906124600 | 64 | 141 | 2.0 | 6.0 | 0.00 | 0.00 | 0.00 | 94 | 1019.0 |
| 20260906124030 | 64 | 172 | 2.0 | 6.0 | 0.00 | 0.00 | 0.00 | 94 | 1018.7 |
| 20260906123531 | 64 | 150 | 2.0 | 6.0 | 0.00 | 0.00 | 0.00 | 94 | 1018.7 |
| 20260906123104 | 64 | 153 | 3.0 | 6.0 | 0.00 | 0.00 | 0.00 | 94 | 1018.6 |
| 20260906122534 | 64 | 153 | 2.0 | 4.0 | 0.00 | 0.00 | 0.00 | 94 | 1018.5 |
| 20260906122031 | 64 | 165 | 1.0 | 4.0 | 0.00 | 0.00 | 0.00 | 94 | 1018.6 |
| 20260906121554 | 64 | 101 | 1.0 | 4.0 | 0.00 | 0.00 | 0.00 | 94 | 1018.5 |
| 20260906121031 | 64 | 144 | 2.0 | 4.0 | 0.00 | 0.00 | 0.00 | 94 | 1018.5 |
| 20260906120531 | 64 | 165 | 1.0 | 5.0 | 0.00 | 0.00 | 0.00 | 94 | 1018.6 |
| 20260906120137 | 64 | 153 | 2.0 | 5.0 | 0.00 | 0.00 | 0.00 | 94 | 1018.5 |
| 20260906115531 | 63 | 160 | 1.0 | 3.0 | 0.00 | 0.00 | 0.00 | 94 | 1018.5 |
| 20260906115031 | 63 | 153 | 1.0 | 3.0 | 0.00 | 0.00 | 0.00 | 94 | 1018.6 |
| 20260906114627 | 63 | 152 | 1.0 | 3.0 | 0.00 | 0.00 | 0.00 | 94 | 1018.6 |
| 20260906114030 | 63 | 151 | 0.0 | 4.0 | 0.00 | 0.00 | 0.00 | 94 | 1018.4 |
| 20260906113530 | 63 | 179 | 1.0 | 4.0 | 0.00 | 0.00 | 0.00 | 94 | 1018.2 |
| 20260906113100 | 63 | 146 | 1.0 | 4.0 | 0.00 | 0.00 | 0.00 | 94 | 1018.1 |
| 20260906112530 | 63 | 146 | 1.0 | 4.0 | 0.00 | 0.00 | 0.00 | 94 | 1017.9 |
| 20260906112031 | 63 | 123 | 2.0 | 3.0 | 0.00 | 0.00 | 0.00 | 94 | 1018.0 |
| 20260906111603 | 63 | 0 | 0.0 | 5.0 | 0.00 | 0.00 | 0.00 | 94 | 1018.0 |
| 20260906111031 | 63 | 235 | 2.0 | 5.0 | 0.00 | 0.00 | 0.00 | 94 | 1017.9 |
| 20260906110531 | 63 | 158 | 1.0 | 4.0 | 0.00 | 0.00 | 0.00 | 94 | 1017.8 |
| 20260906110057 | 63 | 187 | 1.0 | 4.0 | 0.00 | 0.00 | 0.00 | 94 | 1017.9 |
| 20260906105530 | 63 | 175 | 0.0 | 4.0 | 0.00 | 0.00 | 0.00 | 94 | 1018.0 |
| 20260906105033 | 63 | 154 | 1.0 | 4.0 | 0.00 | 0.00 | 0.00 | 94 | 1018.0 |
| 20260906104557 | 62 | 169 | 0.0 | 2.0 | 0.00 | 0.00 | 0.00 | 94 | 1018.1 |
| 20260906104030 | 62 | 0 | 0.0 | 2.0 | 0.00 | 0.00 | 0.00 | 94 | 1018.1 |
| 20260906103531 | 62 | 0 | 1.0 | 2.0 | 0.00 | 0.00 | 0.00 | 94 | 1018.2 |
| 20260906103103 | 62 | 152 | 0.0 | 1.0 | 0.00 | 0.00 | 0.00 | 94 | 1018.1 |
| 20260906102535 | 62 | 0 | 0.0 | 0.0 | 0.00 | 0.00 | 0.00 | 94 | 1018.1 |
| 20260906102031 | 62 | 0 | 0.0 | 0.0 | 0.00 | 0.00 | 0.00 | 94 | 1018.0 |
| 20260906101557 | 62 | 0 | 0.0 | 0.0 | 0.00 | 0.00 | 0.00 | 94 | 1017.8 |
| 20260906101034 | 63 | 0 | 0.0 | 0.0 | 0.00 | 0.00 | 0.00 | 94 | 1017.8 |
| 20260906100533 | 63 | 0 | 0.0 | 0.0 | 0.00 | 0.00 | 0.00 | 94 | 1017.8 |
| 20260906095530 | 63 | 0 | 0.0 | 1.0 | 0.00 | 0.00 | 0.00 | 94 | 1017.6 |
| 20260906095031 | 63 | 0 | 0.0 | 1.0 | 0.00 | 0.00 | 0.00 | 94 | 1017.5 |
| 20260906094557 | 63 | 229 | 0.0 | 1.0 | 0.00 | 0.00 | 0.00 | 94 | 1017.5 |
| 20260906094031 | 63 | 0 | 0.0 | 0.0 | 0.00 | 0.00 | 0.00 | 94 | 1017.4 |
| 20260906093534 | 64 | 0 | 0.0 | 1.0 | 0.00 | 0.00 | 0.00 | 94 | 1017.5 |
| 20260906093100 | 64 | 0 | 0.0 | 1.0 | 0.00 | 0.00 | 0.00 | 94 | 1017.4 |
| 20260906092531 | 64 | 0 | 0.0 | 4.0 | 0.00 | 0.00 | 0.00 | 94 | 1017.4 |
| 20260906092031 | 64 | 0 | 0.0 | 4.0 | 0.00 | 0.00 | 0.00 | 94 | 1017.3 |
| 20260906091601 | 64 | 134 | 1.0 | 5.0 | 0.00 | 0.00 | 0.00 | 94 | 1017.3 |
| 20260906091031 | 64 | 158 | 1.0 | 5.0 | 0.00 | 0.00 | 0.00 | 94 | 1017.2 |
| 20260906090532 | 64 | 195 | 2.0 | 5.0 | 0.00 | 0.00 | 0.00 | 94 | 1017.1 |
| 20260906090058 | 64 | 0 | 0.0 | 2.0 | 0.00 | 0.00 | 0.00 | 94 | 1017.3 |
| 20260906085531 | 64 | 144 | 0.0 | 2.0 | 0.00 | 0.00 | 0.00 | 94 | 1017.2 |
| 20260906085030 | 64 | 138 | 0.0 | 2.0 | 0.00 | 0.00 | 0.00 | 94 | 1017.2 |
| 20260906084557 | 64 | 134 | 0.0 | 2.0 | 0.00 | 0.00 | 0.00 | 94 | 1017.1 |
| 20260906084030 | 64 | 168 | 0.0 | 2.0 | 0.00 | 0.00 | 0.00 | 94 | 1017.2 |
| 20260906083531 | 64 | 104 | 0.0 | 1.0 | 0.00 | 0.00 | 0.00 | 94 | 1017.3 |
| 20260906083100 | 64 | 0 | 0.0 | 1.0 | 0.00 | 0.00 | 0.00 | 94 | 1017.3 |
| 20260906082530 | 65 | 0 | 0.0 | 1.0 | 0.00 | 0.00 | 0.00 | 94 | 1017.4 |
| 20260906082031 | 65 | 0 | 0.0 | 1.0 | 0.00 | 0.00 | 0.00 | 94 | 1017.4 |
| 20260906081559 | 65 | 0 | 0.0 | 1.0 | 0.00 | 0.00 | 0.00 | 94 | 1017.4 |
| 20260906081030 | 65 | 0 | 0.0 | 1.0 | 0.00 | 0.00 | 0.00 | 94 | 1017.4 |
| 20260906080531 | 65 | 0 | 0.0 | 1.0 | 0.00 | 0.00 | 0.00 | 94 | 1017.5 |
| 20260906080059 | 65 | 0 | 0.0 | 1.0 | 0.00 | 0.00 | 0.00 | 94 | 1017.5 |
| 20260906075530 | 65 | 0 | 0.0 | 1.0 | 0.00 | 0.00 | 0.00 | 94 | 1017.4 |
| 20260906075030 | 66 | 0 | 0.0 | 1.0 | 0.00 | 0.00 | 0.00 | 94 | 1017.4 |
| 20260906074557 | 66 | 127 | 0.0 | 3.0 | 0.00 | 0.00 | 0.00 | 94 | 1017.4 |
| 20260906074031 | 66 | 0 | 0.0 | 3.0 | 0.00 | 0.00 | 0.00 | 94 | 1017.4 |
| 20260906073530 | 66 | 121 | 1.0 | 3.0 | 0.00 | 0.00 | 0.00 | 94 | 1017.3 |
| 20260906073052 | 66 | 160 | 1.0 | 2.0 | 0.00 | 0.00 | 0.00 | 94 | 1017.5 |
| 20260906072531 | 66 | 0 | 0.0 | 2.0 | 0.00 | 0.00 | 0.00 | 94 | 1017.5 |
| 20260906072031 | 66 | 96 | 0.0 | 4.0 | 0.00 | 0.00 | 0.00 | 94 | 1017.5 |
| 20260906071600 | 66 | 98 | 1.0 | 4.0 | 0.00 | 0.00 | 0.00 | 94 | 1017.5 |
| 20260906071031 | 66 | 102 | 1.0 | 3.0 | 0.00 | 0.00 | 0.00 | 94 | 1017.6 |
| 20260906070531 | 66 | 95 | 1.0 | 3.0 | 0.00 | 0.00 | 0.00 | 94 | 1017.6 |
| 20260906070056 | 66 | 117 | 1.0 | 2.0 | 0.00 | 0.00 | 0.00 | 94 | 1017.6 |
| 20260906065530 | 66 | 127 | 0.0 | 1.0 | 0.00 | 0.00 | 0.00 | 94 | 1017.6 |
| 20260906065031 | 66 | 0 | 0.0 | 0.0 | 0.00 | 0.00 | 0.00 | 94 | 1017.8 |
| 20260906064600 | 66 | 0 | 0.0 | 0.0 | 0.00 | 0.00 | 0.00 | 94 | 1017.8 |
| 20260906064031 | 66 | 0 | 0.0 | 0.0 | 0.00 | 0.00 | 0.00 | 94 | 1018.0 |
| 20260906063530 | 66 | 0 | 0.0 | 0.0 | 0.00 | 0.00 | 0.00 | 94 | 1018.0 |
| 20260906063058 | 66 | 0 | 0.0 | 0.0 | 0.00 | 0.00 | 0.00 | 94 | 1018.0 |
| 20260906062530 | 66 | 0 | 0.0 | 0.0 | 0.00 | 0.00 | 0.00 | 94 | 1018.1 |
| 20260906062030 | 66 | 0 | 0.0 | 1.0 | 0.00 | 0.00 | 0.00 | 93 | 1018.1 |
| 20260906061559 | 66 | 0 | 0.0 | 1.0 | 0.00 | 0.00 | 0.00 | 94 | 1018.1 |
| 20260906061030 | 66 | 0 | 0.0 | 1.0 | 0.00 | 0.00 | 0.00 | 94 | 1018.0 |
| 20260906060528 | 66 | 0 | 0.0 | 1.0 | 0.00 | 0.00 | 0.00 | 94 | 1017.9 |
| 20260906060058 | 66 | 0 | 0.0 | 1.0 | 0.00 | 0.00 | 0.00 | 94 | 1017.9 |
| 20260906055531 | 66 | 148 | 0.0 | 1.0 | 0.00 | 0.00 | 0.00 | 94 | 1017.9 |
| 20260906055031 | 66 | 0 | 0.0 | 1.0 | 0.00 | 0.00 | 0.00 | 94 | 1017.8 |
| 20260906054631 | 66 | 148 | 0.0 | 1.0 | 0.00 | 0.00 | 0.00 | 94 | 1017.9 |
| 20260906054031 | 66 | 148 | 0.0 | 1.0 | 0.00 | 0.00 | 0.00 | 94 | 1017.8 |
| 20260906053530 | 66 | 148 | 0.0 | 0.0 | 0.00 | 0.00 | 0.00 | 94 | 1017.7 |
| 20260906053054 | 66 | 0 | 0.0 | 0.0 | 0.00 | 0.00 | 0.00 | 94 | 1017.8 |
| 20260906052530 | 66 | 0 | 0.0 | 0.0 | 0.00 | 0.00 | 0.00 | 94 | 1017.8 |
| 20260906052031 | 65 | 0 | 0.0 | 0.0 | 0.00 | 0.00 | 0.00 | 94 | 1017.8 |
| 20260906051551 | 65 | 0 | 0.0 | 0.0 | 0.00 | 0.00 | 0.00 | 93 | 1017.8 |
| 20260906051030 | 65 | 0 | 0.0 | 0.0 | 0.00 | 0.00 | 0.00 | 93 | 1017.8 |
| 20260906050530 | 65 | 0 | 0.0 | 0.0 | 0.00 | 0.00 | 0.00 | 93 | 1018.0 |
| 20260906050107 | 66 | 0 | 0.0 | 0.0 | 0.00 | 0.00 | 0.00 | 93 | 1017.9 |
| 20260906045530 | 66 | 0 | 0.0 | 0.0 | 0.00 | 0.00 | 0.00 | 94 | 1017.9 |
| 20260906045031 | 66 | 0 | 0.0 | 0.0 | 0.00 | 0.00 | 0.00 | 93 | 1017.9 |
| 20260906044601 | 66 | 0 | 0.0 | 0.0 | 0.00 | 0.00 | 0.00 | 93 | 1017.7 |
| 20260906044032 | 66 | 0 | 0.0 | 0.0 | 0.00 | 0.00 | 0.00 | 93 | 1017.8 |
| 20260906043531 | 66 | 0 | 0.0 | 0.0 | 0.00 | 0.00 | 0.00 | 93 | 1017.9 |
| 20260906043052 | 65 | 0 | 0.0 | 0.0 | 0.00 | 0.00 | 0.00 | 93 | 1017.8 |
| 20260906042531 | 66 | 0 | 0.0 | 0.0 | 0.00 | 0.00 | 0.00 | 92 | 1017.8 |
| 20260906042030 | 66 | 0 | 0.0 | 0.0 | 0.00 | 0.00 | 0.00 | 92 | 1017.7 |
| 20260906041603 | 66 | 0 | 0.0 | 0.0 | 0.00 | 0.00 | 0.00 | 93 | 1017.6 |
| 20260906041029 | 66 | 0 | 0.0 | 0.0 | 0.00 | 0.00 | 0.00 | 93 | 1017.7 |
| 20260906040529 | 66 | 0 | 0.0 | 0.0 | 0.00 | 0.00 | 0.00 | 93 | 1017.6 |
| 20260906040111 | 66 | 0 | 0.0 | 0.0 | 0.00 | 0.00 | 0.00 | 92 | 1017.6 |
| 20260906035528 | 66 | 0 | 0.0 | 0.0 | 0.00 | 0.00 | 0.00 | 92 | 1017.4 |
| 20260906035028 | 67 | 0 | 0.0 | 0.0 | 0.00 | 0.00 | 0.00 | 92 | 1017.5 |
| 20260906034556 | 67 | 0 | 0.0 | 0.0 | 0.00 | 0.00 | 0.00 | 92 | 1017.6 |
| 20260906034032 | 67 | 0 | 0.0 | 0.0 | 0.00 | 0.00 | 0.00 | 92 | 1017.6 |
| 20260906033530 | 67 | 0 | 0.0 | 0.0 | 0.00 | 0.00 | 0.00 | 92 | 1017.7 |
| 20260906033127 | 67 | 0 | 0.0 | 0.0 | 0.00 | 0.00 | 0.00 | 92 | 1017.9 |
| 20260906032529 | 67 | 0 | 0.0 | 0.0 | 0.00 | 0.00 | 0.00 | 92 | 1017.8 |
| 20260906032034 | 67 | 0 | 0.0 | 0.0 | 0.00 | 0.00 | 0.00 | 92 | 1017.8 |
| 20260906031613 | 67 | 0 | 0.0 | 0.0 | 0.00 | 0.00 | 0.00 | 92 | 1017.9 |
| 20260906031032 | 67 | 0 | 0.0 | 0.0 | 0.00 | 0.00 | 0.00 | 92 | 1017.9 |
| 20260906030531 | 67 | 0 | 0.0 | 0.0 | 0.00 | 0.00 | 0.00 | 92 | 1017.8 |
| 20260906030059 | 67 | 0 | 0.0 | 0.0 | 0.00 | 0.00 | 0.00 | 92 | 1017.8 |
| 20260906025531 | 67 | 0 | 0.0 | 0.0 | 0.00 | 0.00 | 0.00 | 91 | 1017.6 |
| 20260906025032 | 67 | 0 | 0.0 | 0.0 | 0.00 | 0.00 | 0.00 | 91 | 1017.6 |
| 20260906024604 | 67 | 0 | 0.0 | 0.0 | 0.00 | 0.00 | 0.00 | 91 | 1017.6 |
| 20260906024031 | 67 | 0 | 0.0 | 0.0 | 0.00 | 0.00 | 0.00 | 90 | 1017.6 |
| 20260906023531 | 67 | 0 | 0.0 | 0.0 | 0.00 | 0.00 | 0.00 | 90 | 1017.4 |
| 20260906023103 | 68 | 0 | 0.0 | 0.0 | 0.00 | 0.00 | 0.00 | 89 | 1017.2 |
| 20260906022530 | 68 | 0 | 0.0 | 0.0 | 0.00 | 0.00 | 0.00 | 89 | 1017.1 |
| 20260906022030 | 68 | 0 | 0.0 | 0.0 | 0.00 | 0.00 | 0.00 | 89 | 1017.0 |
| 20260906021603 | 68 | 0 | 0.0 | 0.0 | 0.00 | 0.00 | 0.00 | 88 | 1016.9 |
| 20260906021030 | 69 | 0 | 0.0 | 0.0 | 0.00 | 0.00 | 0.00 | 88 | 1016.7 |
| 20260906020534 | 69 | 0 | 0.0 | 0.0 | 0.00 | 0.00 | 0.00 | 88 | 1016.6 |
| 20260906020053 | 69 | 0 | 0.0 | 0.0 | 0.00 | 0.00 | 0.00 | 87 | 1016.5 |
| 20260906015530 | 70 | 0 | 0.0 | 0.0 | 0.00 | 0.00 | 0.00 | 87 | 1016.3 |
| 20260906015030 | 70 | 0 | 0.0 | 0.0 | 0.00 | 0.00 | 0.00 | 87 | 1016.1 |
| 20260906014559 | 70 | 0 | 0.0 | 1.0 | 0.00 | 0.00 | 0.00 | 88 | 1015.9 |
| 20260906014031 | 70 | 0 | 0.0 | 1.0 | 0.00 | 0.00 | 0.00 | 87 | 1015.9 |
| 20260906013530 | 70 | 0 | 0.0 | 3.0 | 0.00 | 0.00 | 0.00 | 86 | 1015.8 |
| 20260906013104 | 70 | 171 | 1.0 | 4.0 | 0.00 | 0.00 | 0.00 | 86 | 1015.7 |
| 20260906012530 | 71 | 165 | 2.0 | 4.0 | 0.00 | 0.00 | 0.00 | 85 | 1015.6 |
| 20260906012029 | 71 | 164 | 1.0 | 4.0 | 0.00 | 0.00 | 0.00 | 85 | 1015.6 |
| 20260906011604 | 71 | 131 | 0.0 | 3.0 | 0.00 | 0.00 | 0.00 | 84 | 1015.5 |
| 20260906011032 | 72 | 166 | 0.0 | 4.0 | 0.00 | 0.00 | 0.00 | 84 | 1015.4 |
| 20260906010532 | 72 | 150 | 2.0 | 5.0 | 0.00 | 0.00 | 0.00 | 84 | 1015.4 |
| 20260906010057 | 72 | 107 | 2.0 | 5.0 | 0.00 | 0.00 | 0.00 | 84 | 1015.4 |
| 20260906005530 | 72 | 110 | 2.0 | 4.0 | 0.00 | 0.00 | 0.00 | 84 | 1015.3 |
| 20260906005030 | 72 | 139 | 2.0 | 4.0 | 0.00 | 0.00 | 0.00 | 84 | 1015.2 |
| 20260906004603 | 72 | 0 | 0.0 | 5.0 | 0.00 | 0.00 | 0.00 | 83 | 1015.2 |
| 20260906004032 | 73 | 159 | 1.0 | 5.0 | 0.00 | 0.00 | 0.00 | 83 | 1015.2 |
| 20260906003530 | 73 | 186 | 0.0 | 2.0 | 0.00 | 0.00 | 0.00 | 82 | 1015.3 |
| 20260906003100 | 73 | 234 | 0.0 | 2.0 | 0.00 | 0.00 | 0.00 | 82 | 1015.1 |
| 20260906002529 | 74 | 0 | 0.0 | 2.0 | 0.00 | 0.00 | 0.00 | 81 | 1015.0 |
| 20260906002031 | 74 | 84 | 0.0 | 3.0 | 0.00 | 0.00 | 0.00 | 81 | 1015.0 |
| 20260906001600 | 74 | 317 | 0.0 | 3.0 | 0.00 | 0.00 | 0.00 | 80 | 1015.0 |
| 20260906001030 | 74 | 85 | 0.0 | 2.0 | 0.00 | 0.00 | 0.00 | 80 | 1015.1 |
| 20260906000532 | 75 | 355 | 0.0 | 2.0 | 0.00 | 0.00 | 0.00 | 79 | 1015.3 |
| 20260905235530 | 75 | 239 | 0.0 | 2.0 | 0.00 | 0.00 | 0.00 | 78 | 1015.2 |
| 20260905235031 | 76 | 58 | 1.0 | 3.0 | 0.00 | 0.00 | 0.00 | 77 | 1015.2 |
| 20260905234556 | 76 | 72 | 0.0 | 3.0 | 0.00 | 0.00 | 0.00 | 77 | 1015.2 |
| 20260905234030 | 76 | 72 | 1.0 | 2.0 | 0.00 | 0.00 | 0.00 | 77 | 1015.1 |
| 20260905233530 | 76 | 95 | 1.0 | 2.0 | 0.00 | 0.00 | 0.00 | 77 | 1015.3 |
| 20260905233058 | 76 | 70 | 0.0 | 4.0 | 0.00 | 0.00 | 0.00 | 76 | 1015.3 |
| 20260905232529 | 76 | 56 | 1.0 | 4.0 | 0.00 | 0.00 | 0.00 | 75 | 1015.3 |
| 20260905232030 | 76 | 0 | 1.0 | 3.0 | 0.00 | 0.00 | 0.00 | 75 | 1015.4 |
| 20260905231600 | 77 | 247 | 0.0 | 3.0 | 0.00 | 0.00 | 0.00 | 75 | 1015.5 |
| 20260905231029 | 77 | 244 | 1.0 | 3.0 | 0.00 | 0.00 | 0.00 | 74 | 1015.5 |
| 20260905230531 | 77 | 240 | 1.0 | 3.0 | 0.00 | 0.00 | 0.00 | 75 | 1015.4 |
| 20260905230058 | 77 | 77 | 1.0 | 2.0 | 0.00 | 0.00 | 0.00 | 74 | 1015.3 |
| 20260905225532 | 77 | 353 | 1.0 | 3.0 | 0.00 | 0.00 | 0.00 | 73 | 1015.4 |
| 20260905225030 | 77 | 72 | 0.0 | 4.0 | 0.00 | 0.00 | 0.00 | 73 | 1015.4 |
| 20260905224559 | 78 | 127 | 1.0 | 4.0 | 0.00 | 0.00 | 0.00 | 72 | 1015.4 |
| 20260905224029 | 78 | 58 | 1.0 | 4.0 | 0.00 | 0.00 | 0.00 | 72 | 1015.4 |
| 20260905223529 | 78 | 148 | 1.0 | 5.0 | 0.00 | 0.00 | 0.00 | 70 | 1015.5 |
| 20260905223101 | 78 | 64 | 1.0 | 5.0 | 0.00 | 0.00 | 0.00 | 70 | 1015.5 |
| 20260905222531 | 78 | 300 | 1.0 | 4.0 | 0.00 | 0.00 | 0.00 | 71 | 1015.5 |
| 20260905222030 | 79 | 80 | 1.0 | 4.0 | 0.00 | 0.00 | 0.00 | 70 | 1015.6 |
| 20260905221558 | 79 | 285 | 1.0 | 3.0 | 0.00 | 0.00 | 0.00 | 70 | 1015.7 |
| 20260905221030 | 79 | 61 | 2.0 | 4.0 | 0.00 | 0.00 | 0.00 | 69 | 1015.8 |
| 20260905220530 | 80 | 25 | 1.0 | 8.0 | 0.00 | 0.00 | 0.00 | 67 | 1015.9 |
| 20260905220052 | 80 | 65 | 1.0 | 8.0 | 0.00 | 0.00 | 0.00 | 66 | 1015.8 |
| 20260905215529 | 81 | 250 | 3.0 | 6.0 | 0.00 | 0.00 | 0.00 | 66 | 1015.8 |
| 20260905215031 | 81 | 88 | 1.0 | 4.0 | 0.00 | 0.00 | 0.00 | 66 | 1015.9 |
| 20260905214600 | 81 | 176 | 1.0 | 6.0 | 0.00 | 0.00 | 0.00 | 65 | 1015.9 |
| 20260905214030 | 81 | 35 | 2.0 | 6.0 | 0.00 | 0.00 | 0.00 | 66 | 1015.9 |
| 20260905213530 | 81 | 84 | 1.0 | 4.0 | 0.00 | 0.00 | 0.00 | 66 | 1016.0 |
| 20260905213100 | 81 | 78 | 1.0 | 5.0 | 0.00 | 0.00 | 0.00 | 66 | 1016.1 |
| 20260905212530 | 81 | 72 | 1.0 | 5.0 | 0.00 | 0.00 | 0.00 | 67 | 1016.0 |
| 20260905212029 | 81 | 213 | 2.0 | 5.0 | 0.00 | 0.00 | 0.00 | 69 | 1016.1 |
| 20260905211611 | 80 | 96 | 1.0 | 3.0 | 0.00 | 0.00 | 0.00 | 69 | 1016.2 |
| 20260905211030 | 80 | 72 | 2.0 | 4.0 | 0.00 | 0.00 | 0.00 | 67 | 1016.1 |
| 20260905210530 | 81 | 76 | 1.0 | 4.0 | 0.00 | 0.00 | 0.00 | 69 | 1016.2 |
| 20260905210104 | 81 | 66 | 1.0 | 4.0 | 0.00 | 0.00 | 0.00 | 68 | 1016.2 |
| 20260905205531 | 81 | 134 | 1.0 | 3.0 | 0.00 | 0.00 | 0.00 | 69 | 1016.4 |
| 20260905205031 | 81 | 351 | 1.0 | 3.0 | 0.00 | 0.00 | 0.00 | 68 | 1016.4 |
| 20260905204603 | 80 | 12 | 1.0 | 4.0 | 0.00 | 0.00 | 0.00 | 68 | 1016.5 |
| 20260905204032 | 80 | 354 | 2.0 | 4.0 | 0.00 | 0.00 | 0.00 | 68 | 1016.4 |
| 20260905203529 | 80 | 70 | 1.0 | 3.0 | 0.00 | 0.00 | 0.00 | 67 | 1016.5 |
| 20260905203049 | 80 | 66 | 1.0 | 6.0 | 0.00 | 0.00 | 0.00 | 68 | 1016.5 |
| 20260905202533 | 80 | 70 | 1.0 | 6.0 | 0.00 | 0.00 | 0.00 | 69 | 1016.6 |
| 20260905202038 | 80 | 144 | 2.0 | 6.0 | 0.00 | 0.00 | 0.00 | 68 | 1016.6 |
| 20260905201606 | 81 | 133 | 2.0 | 5.0 | 0.00 | 0.00 | 0.00 | 67 | 1016.6 |
| 20260905201031 | 81 | 98 | 1.0 | 6.0 | 0.00 | 0.00 | 0.00 | 67 | 1016.6 |
| 20260905200531 | 81 | 334 | 1.0 | 6.0 | 0.00 | 0.00 | 0.00 | 68 | 1016.7 |
| 20260905200118 | 81 | 166 | 1.0 | 5.0 | 0.00 | 0.00 | 0.00 | 68 | 1016.8 |
| 20260905195530 | 81 | 0 | 1.0 | 3.0 | 0.00 | 0.00 | 0.00 | 69 | 1016.9 |
| 20260905195031 | 80 | 328 | 0.0 | 3.0 | 0.00 | 0.00 | 0.00 | 69 | 1016.9 |
| 20260905194553 | 80 | 0 | 1.0 | 6.0 | 0.00 | 0.00 | 0.00 | 70 | 1016.9 |
| 20260905194031 | 79 | 149 | 2.0 | 8.0 | 0.00 | 0.00 | 0.00 | 70 | 1016.8 |
| 20260905193530 | 79 | 146 | 3.0 | 8.0 | 0.00 | 0.00 | 0.00 | 72 | 1016.8 |
| 20260905193100 | 79 | 192 | 3.0 | 7.0 | 0.00 | 0.00 | 0.00 | 74 | 1016.9 |
| 20260905192531 | 78 | 181 | 3.0 | 6.0 | 0.00 | 0.00 | 0.00 | 75 | 1016.9 |
| 20260905192030 | 78 | 125 | 1.0 | 5.0 | 0.00 | 0.00 | 0.00 | 74 | 1016.9 |
| 20260905191556 | 77 | 167 | 0.0 | 5.0 | 0.00 | 0.00 | 0.00 | 75 | 1016.8 |
| 20260905191030 | 77 | 20 | 1.0 | 6.0 | 0.00 | 0.00 | 0.00 | 76 | 1016.8 |
| 20260905190530 | 77 | 163 | 3.0 | 6.0 | 0.00 | 0.00 | 0.00 | 77 | 1017.0 |
| 20260905190057 | 76 | 155 | 1.0 | 5.0 | 0.00 | 0.00 | 0.00 | 78 | 1017.0 |
| 20260905185531 | 76 | 165 | 2.0 | 5.0 | 0.00 | 0.00 | 0.00 | 77 | 1017.0 |
| 20260905185035 | 76 | 108 | 1.0 | 3.0 | 0.00 | 0.00 | 0.00 | 77 | 1017.0 |
| 20260905184556 | 76 | 151 | 0.0 | 2.0 | 0.00 | 0.00 | 0.00 | 76 | 1016.9 |
| 20260905184031 | 76 | 89 | 1.0 | 6.0 | 0.00 | 0.00 | 0.00 | 77 | 1017.0 |
| 20260905183531 | 76 | 128 | 1.0 | 6.0 | 0.00 | 0.00 | 0.00 | 78 | 1016.9 |
| 20260905183059 | 76 | 151 | 1.0 | 5.0 | 0.00 | 0.00 | 0.00 | 80 | 1016.9 |
| 20260905182531 | 75 | 88 | 1.0 | 6.0 | 0.00 | 0.00 | 0.00 | 81 | 1016.8 |
| 20260905182031 | 75 | 143 | 4.0 | 6.0 | 0.00 | 0.00 | 0.00 | 80 | 1016.8 |
| 20260905181600 | 75 | 158 | 3.0 | 5.0 | 0.00 | 0.00 | 0.00 | 80 | 1016.9 |
| 20260905181030 | 75 | 157 | 2.0 | 5.0 | 0.00 | 0.00 | 0.00 | 80 | 1017.0 |
| 20260905180534 | 76 | 123 | 2.0 | 5.0 | 0.00 | 0.00 | 0.00 | 80 | 1017.1 |
| 20260905180104 | 76 | 160 | 3.0 | 5.0 | 0.00 | 0.00 | 0.00 | 81 | 1017.2 |
| 20260905175531 | 76 | 207 | 3.0 | 7.0 | 0.00 | 0.00 | 0.00 | 82 | 1017.3 |
| 20260905175031 | 76 | 153 | 4.0 | 7.0 | 0.00 | 0.00 | 0.00 | 81 | 1017.4 |
| 20260905174555 | 76 | 172 | 4.0 | 7.0 | 0.00 | 0.00 | 0.00 | 83 | 1017.5 |
| 20260905174031 | 75 | 174 | 3.0 | 7.0 | 0.00 | 0.00 | 0.00 | 82 | 1017.5 |
| 20260905173537 | 75 | 148 | 2.0 | 7.0 | 0.00 | 0.00 | 0.00 | 81 | 1017.5 |
| 20260905173106 | 75 | 171 | 2.0 | 7.0 | 0.00 | 0.00 | 0.00 | 83 | 1017.6 |
| 20260905172531 | 74 | 0 | 0.0 | 3.0 | 0.00 | 0.00 | 0.00 | 83 | 1017.6 |
| 20260905172031 | 74 | 156 | 0.0 | 4.0 | 0.00 | 0.00 | 0.00 | 85 | 1017.5 |
| 20260905171557 | 74 | 165 | 2.0 | 5.0 | 0.00 | 0.00 | 0.00 | 83 | 1017.5 |
| 20260905171033 | 74 | 138 | 2.0 | 5.0 | 0.00 | 0.00 | 0.00 | 85 | 1017.6 |
| 20260905170531 | 74 | 165 | 2.0 | 5.0 | 0.00 | 0.00 | 0.00 | 84 | 1017.7 |
| 20260905165531 | 74 | 153 | 2.0 | 8.0 | 0.00 | 0.00 | 0.00 | 86 | 1017.4 |
| 20260905165032 | 74 | 169 | 3.0 | 8.0 | 0.00 | 0.00 | 0.00 | 87 | 1017.3 |
| 20260905164552 | 73 | 227 | 3.0 | 5.0 | 0.00 | 0.00 | 0.00 | 87 | 1017.3 |
| 20260905164033 | 73 | 172 | 2.0 | 5.0 | 0.00 | 0.00 | 0.00 | 89 | 1017.4 |
| 20260905163531 | 73 | 153 | 1.0 | 6.0 | 0.00 | 0.00 | 0.00 | 90 | 1017.4 |
| 20260905163100 | 72 | 144 | 2.0 | 6.0 | 0.00 | 0.00 | 0.00 | 90 | 1017.4 |
| 20260905162532 | 72 | 182 | 4.0 | 6.0 | 0.00 | 0.00 | 0.00 | 91 | 1017.4 |
| 20260905162032 | 71 | 150 | 4.0 | 5.0 | 0.00 | 0.00 | 0.00 | 92 | 1017.3 |
| 20260905161557 | 71 | 157 | 1.0 | 4.0 | 0.00 | 0.00 | 0.00 | 92 | 1017.2 |
| 20260905161032 | 71 | 153 | 1.0 | 3.0 | 0.00 | 0.00 | 0.00 | 92 | 1017.2 |
| 20260905160531 | 70 | 0 | 0.0 | 1.0 | 0.00 | 0.00 | 0.00 | 92 | 1017.3 |
| 20260905155531 | 70 | 0 | 0.0 | 2.0 | 0.00 | 0.00 | 0.00 | 92 | 1017.4 |
| 20260905155030 | 70 | 144 | 0.0 | 2.0 | 0.00 | 0.00 | 0.00 | 92 | 1017.4 |
| 20260905154608 | 70 | 162 | 0.0 | 3.0 | 0.00 | 0.00 | 0.00 | 92 | 1017.5 |
| 20260905154036 | 69 | 130 | 1.0 | 3.0 | 0.00 | 0.00 | 0.00 | 92 | 1017.4 |
| 20260905153532 | 69 | 129 | 1.0 | 3.0 | 0.00 | 0.00 | 0.00 | 92 | 1017.4 |
| 20260905153058 | 69 | 131 | 0.0 | 2.0 | 0.00 | 0.00 | 0.00 | 92 | 1017.5 |
| 20260905152531 | 69 | 131 | 0.0 | 2.0 | 0.00 | 0.00 | 0.00 | 92 | 1017.5 |
| 20260905152032 | 69 | 120 | 1.0 | 2.0 | 0.00 | 0.00 | 0.00 | 92 | 1017.4 |
| 20260905151554 | 69 | 146 | 1.0 | 2.0 | 0.00 | 0.00 | 0.00 | 92 | 1017.5 |
| 20260905151032 | 69 | 153 | 1.0 | 3.0 | 0.00 | 0.00 | 0.00 | 92 | 1017.4 |
| 20260905150531 | 68 | 155 | 1.0 | 3.0 | 0.00 | 0.00 | 0.00 | 92 | 1017.2 |
| 20260905145531 | 68 | 0 | 1.0 | 2.0 | 0.00 | 0.00 | 0.00 | 92 | 1017.5 |
| 20260905145032 | 68 | 50 | 0.0 | 1.0 | 0.00 | 0.00 | 0.00 | 92 | 1017.4 |
| 20260905144601 | 68 | 50 | 0.0 | 1.0 | 0.00 | 0.00 | 0.00 | 92 | 1017.3 |
| 20260905144031 | 68 | 0 | 0.0 | 2.0 | 0.00 | 0.00 | 0.00 | 92 | 1017.3 |
| 20260905143530 | 68 | 0 | 0.0 | 2.0 | 0.00 | 0.00 | 0.00 | 92 | 1017.2 |